This is the latest recevied weather packets stored in our database for station/object SR5NLK-1. If no packets are shown the sender has not sent any weather packets the latest 10 day(s).
| Time | Temp. | Humidity | Pressure | Rain* | Wind** | Luminosity | Snow |
|---|---|---|---|---|---|---|---|
| 1777531512 | 13.33° C | 39% | 1012.2 hPa | 0 mm | - | - | - |
| 1777531212 | 13.33° C | 38% | 1025.1 hPa | 0 mm | - | - | - |
| 1777530912 | 13.33° C | 38% | 990 hPa | 0 mm | - | - | - |
| 1777530612 | 13.33° C | 38% | 999.5 hPa | 0 mm | - | - | - |
| 1777530312 | 13.89° C | 37% | 1005.8 hPa | 0 mm | - | - | - |
| 1777530012 | 14.44° C | 37% | 1002.7 hPa | 0 mm | - | - | - |
| 1777529891 | 15° C | 37% | 1000.7 hPa | 0 mm | - | - | - |
| 1777529712 | 15° C | 37% | 1006.2 hPa | 0 mm | - | - | - |
| 1777529412 | 15° C | 38% | 993.1 hPa | 0 mm | - | - | - |
| 1777529112 | 14.44° C | 38% | 1002.7 hPa | 0 mm | - | - | - |
| 1777528812 | 15° C | 38% | 1002.9 hPa | 0 mm | - | - | - |
| 1777528513 | 15° C | 38% | 988.2 hPa | 0 mm | - | - | - |
| 1777528212 | 15° C | 39% | 1007.3 hPa | 0 mm | - | - | - |
| 1777527612 | 13.89° C | 40% | 980.5 hPa | 0 mm | - | - | - |
| 1777527312 | 13.89° C | 40% | 977.8 hPa | 0 mm | - | - | - |
| 1777527012 | 13.89° C | 41% | 980.4 hPa | 0 mm | - | - | - |
| 1777526712 | 12.78° C | 42% | 974.1 hPa | 0 mm | - | - | - |
| 1777526412 | 12.78° C | 43% | 994 hPa | 0 mm | - | - | - |
| 1777526112 | 11.67° C | 46% | 971.5 hPa | 0 mm | - | - | - |
| 1777525931 | 11.67° C | 46% | 971 hPa | 0 mm | - | - | - |
| 1777525812 | 11.11° C | 47% | 983.8 hPa | 0 mm | - | - | - |
| 1777525512 | 10.56° C | 49% | 967.7 hPa | 0 mm | - | - | - |
| 1777525212 | 9.44° C | 51% | 970.9 hPa | 0 mm | - | - | - |
| 1777524912 | 8.33° C | 53% | 980.4 hPa | 0 mm | - | - | - |
| 1777524612 | 7.22° C | 54% | 977.2 hPa | 0 mm | - | - | - |
* Rain latest hour (hover to see other rain measurements)
** Current wind speed in m/s (hover to see current wind gust speed)